星链-3929 (STARLINK-3929 )

导读 | 星芒AI

STARLINK-3929 是 SpaceX Starlink 卫星互联网项目中的一颗低轨卫星,属于第 11 批(v1.5)部署的星链卫星之一。该卫星于 2022 年 9 月 由猎鹰 9 号火箭发射升空,运行在约 540 公里的轨道高度,旨在为全球用户提供高速互联网服务。Starlink 项目致力于构建一个由数千颗卫星组成的星座,以改善偏远地区的网络接入。STARLINK-3929 采用先进推进系统和激光通信技术,提高网络效率与稳定性。

基本信息
目录编号:
52567
目录名称:
STARLINK-3929
国际标识:
2022-051AL
轨道中心:
EARTH
卫星名称:
星链-3929
卫星全名:
星链-3929 (STARLINK-3929 )
卫星状态:
在轨 (已飞行1272 天)
发射日期:
2022-05-13 UTC
国别 :
美国 (US)
星等 :
--
轨道信息
数据来源 国际轨道数据
星历时间: 2025-11-04T15:28:07+0800
16小时前
查看轨道信息
半长轴: 6917.881km
偏心率: 0.0001358
轨道倾角: 53.217°
近地点辐角 94.746°
升交点赤经 321.964°
平近点角 265.368°
近地点: 538.806km
远地点: 540.686km
周期: 95.438分钟
每日圈数: 15.088399
详细信息
固有亮度:
5
最大亮度:
2.5
卫星平台:
Starlink v1.5
覆盖范围:
全球
运营商:
太空探索技术公司
运营商所在国:
美国
制造商(研发单位):
太空探索技术公司
制造商所在国:
美国
使用方式:
暂无
卫星简介
星链(Starlink)计划是由太空探索技术公司(SpaceX)提出的一个巨型低轨卫星互联网星座项目,计划在2019年至2024年间在太空搭建由约1.2万颗卫星组成的“星链”网络,其中1584颗将部署在地球上空550千米处的近地轨道,并从2020年开始工作。该卫星仍在工作。
2D轨道图
3D轨道图
轨道高度分析图
轨道倾角分析图
轨道综合分析图
查看轨道综合分析图